Regional Weather Roundup
Issued by NWS

Home | Current Version | Previous Version | Graphics & Text | Print | Product List | Glossary On
Versions: 1 2 3 4 5 6 7 8 9 10 11 12 13 14 15 16 17 18 19 20 21 22 23 24 25 26 27 28 29 30 31 32 33 34 35 36 37 38 39 40 41 42 43 44 45 46 47 48 49 50
000
ASUS43 KIND 231459
RWRIN

WEATHER ROUNDUP FOR INDIANA
NATIONAL WEATHER SERVICE INDIANAPOLIS IN
1100 AM EDT SAT AUG 23 2014

NOTE: "FAIR" INDICATES FEW OR NO CLOUDS BELOW 12,000 FEET WITH NO
SIGNIFICANT WEATHER AND/OR OBSTRUCTIONS TO VISIBILITY.

* - STATION DOES NOT REPORT WEATHER SUCH AS PRECIPITATION OR FOG.

+ - STATION NOT QUALITY CONTROLLED BY THE NATIONAL WEATHER SERVICE.
    USE DATA WITH CAUTION...ESPECIALLY DEWPOINT AND RELATIVE
    HUMIDITY OBSERVATIONS.

INZ001>003-010>013-019-020-231600-
NORTHWEST INDIANA

CITY           SKY/WX    TMP DP  RH WIND       PRES   REMARKS
GARY /AIRPORT/ PTSUNNY   82  73  74 CALM      29.97F
KNOX *+        SUNNY     80  73  79 CALM      30.00R
MONTICELLO +   MOSUNNY   80  74  82 SE3       30.00S
VALPARAISO     MOSUNNY   81  73  76 S6        30.01R

$$

LMZ046-743>745-231600-
SOUTHERN LAKE MICHIGAN

STATION/POSITION TIME  TEMP WIND        PRES
                       AIR  DIR/SP/G
                 (UTC) (F)  (DEG/KT/KT) (MB)
MICHIGAN CITY    1400   76  260/  2/  2   N/A

$$

INZ004-005-014>016-021>024-231600-
NORTH CENTRAL INDIANA

CITY           SKY/WX    TMP DP  RH WIND       PRES   REMARKS
ELKHART        CLOUDY    75  73  94 SE8       30.04R FOG
GOSHEN         CLOUDY    77  72  84 SE8       30.03R HAZE
SOUTH BEND     CLOUDY    76  73  91 E5        30.03S FOG
WARSAW +       CLOUDY    75  73  94 E6        30.03R FOG

$$

INZ006>009-017-018-025>027-231600-
NORTHEAST INDIANA

CITY           SKY/WX    TMP DP  RH WIND       PRES   REMARKS
ANGOLA *+      MOSUNNY   77  70  78 VRB3      30.05R
FORT WAYNE     CLOUDY    77  73  87 NE5       30.04R FOG

$$

INZ028-029-035-036-043>045-051>053-231600-
WEST CENTRAL INDIANA

CITY           SKY/WX    TMP DP  RH WIND       PRES   REMARKS
GREENCASTLE +  PTSUNNY   79  73  83 CALM      30.02R
LAFAYETTE      SUNNY     81  73  76 E8        29.99S
TERRE HAUTE    CLOUDY    80  74  81 SE3       29.99R

$$

INZ030>032-037>040-046>048-054>057-064-065-231600-
CENTRAL INDIANA

CITY           SKY/WX    TMP DP  RH WIND       PRES   REMARKS
ANDERSON       MOSUNNY   81  75  83 CALM      30.04R
FRANKFORT +    SUNNY     82  73  76 SE5       30.03S
INDIANAPOLIS   CLOUDY    80  72  76 VRB3      30.02R
-EAGLE CREEK   MOSUNNY   81  71  71 SE3       30.01R
KOKOMO *+      MOSUNNY   79  73  83 S5        30.01S
MT COMFORT *+  PTSUNNY   81  72  74 S3        30.03R
SHELBYVILLE    SUNNY     84  74  71 VRB5      30.02R

$$

INZ033-034-041-042-049-050-058-059-231600-
EAST CENTRAL INDIANA

CITY           SKY/WX    TMP DP  RH WIND       PRES   REMARKS
MUNCIE         MOSUNNY   83  73  72 CALM      30.02R

$$

INZ060-061-067>069-081>083-085>088-231600-
SOUTHWEST INDIANA

CITY           SKY/WX    TMP DP  RH WIND       PRES   REMARKS
EVANSVILLE     SUNNY     84  75  74 SW9       29.98R

$$

INZ062-063-066-070>080-084-089>092-231600-
SOUTH CENTRAL AND SOUTHEAST INDIANA

CITY           SKY/WX    TMP DP  RH WIND       PRES   REMARKS
BLOOMINGTON    CLOUDY    80  73  79 SE5       30.02R

$$



USA.gov is the U.S. government's official web portal to all federal, state and local government web resources and services.